Location: Bacea
(45.9500°N, 22.6667°E)
Time: 06:11:49
(UTC+00:00)

Cosmos 1953 - Pass Details

Date: 02 June 2022
Orbit: 533 x 555 km, 82.5° (Epoch: 03 July)

Event Time Altitude Azimuth Distance (km) Brightness Sun altitude
Rises 22:57:08 0° 339° (NNW) 2,715 6.9 -21.4°
Reaches altitude 10° 22:59:36 10° 325° (NW) 1,812 5.6 -21.4°
Maximum altitude 23:02:48 24° 271° (W) 1,151 3.8 -21.3°
Enters shadow 23:02:53 24° 269° (W) 1,151 3.8 -21.3°
